Location: Laterina
(43.5167°N, 11.7167°E)
Time: 20:58:50
(UTC+00:00)

Cosmos 1125 Rocket - Pass Details

Date: 25 June 2021
Orbit: 757 x 780 km, 74.0° (Epoch: 28 July)

Event Time Altitude Azimuth Distance (km) Brightness Sun altitude
Rises 01:24:52 0° 333° (NNW) 3,249 7.2 -16.8°
Reaches altitude 10° 01:27:19 10° 327° (NNW) 2,322 6.3 -16.6°
Maximum altitude 01:32:19 45° 257° (WSW) 1,054 3.9 -16.1°
Enters shadow 01:35:00 25° 199° (SSW) 1,536 4.5 -15.9°
